METEOR 2-17 DEB

Satellite information

Favourite Embed

Satellite Type and Status

DEBRISIN ORBIT

Key statistics

Satellite METEOR 2-17 DEB at a glance.

Uptime

13728

Days in orbit

Revolutions

≈ 14.0

Per day

Orbit

LEO

Low Earth Orbit

Inclination

82.6

Latest

Satellite identification and parameters

Extended collection of information and parameters for METEOR 2-17 DEB.

Object identification

Identified? True

Debris? True

Object name: METEOR 2-17 DEB

International designator: 1988-005Y

Object number (NORAD): 35364

Object ID (CCSDS): 35364

Country: COMMONWEALTH OF INDEPENDENT STATES (CIS)

Current information (Y/N): Y

RCS size: SMALL

Orbital parameters

Period: 102.735 minutes

Inclination: 82.5515 deg

SMA: 7266.16 km

Apoapsis: 908.356 km

Periapsis: 867.694 km

RAAN: 148.0118 deg

Eccentricy: 0.00279804

Argument of periapsis: 293.1393 deg

Mean anomaly: 244.226 deg

Mean motion: 14.01668492 rev/day

Mean motion (dot): 0.00001505 rev/day2

B* drag term: 0.00098025853 1/REarth

Two-line elements (TLE)

Creation date: Aug. 22, 2025, 9:09 p.m.

Reference frame: TEME

Reference center: EARTH

Epoch: Aug. 21, 2025, 12:05 p.m. UTC

TLE line 0: 0 METEOR 2-17 DEB

TLE line 1: 1 35364U 88005Y 25233.50412852 .00001505 00000-0 98026-3 0 9993

TLE line 2: 2 35364 82.5515 148.0118 0027980 293.1393 244.2260 14.01668492508765

Live tracking on map

Real-time ground track for satellite METEOR 2-17 DEB.

In-orbit conjunctions

A list of the most updated potential collisions computed for object METEOR 2-17 DEB.

Target Orbit TCA Probability of collision Miss distance Type
COSMOS 2251 DEB LEO 2025-08-10 12:09:07 0.0001299453 316.0 (m) DEBRIS
TIMATION 1 LEO 2025-04-22 19:08:16 0.0002940142 47.0 (m) PAYLOAD
CZ-6A DEB LEO 2025-01-20 15:28:44 0.0002382545 484.0 (m) DEBRIS

Associated space launch

Second generation soviet meteorological satellite

METEOR 2-17 DEB was lifted into orbit during the mission ‘Tsiklon-3 | Meteor-2 17’, on board a Tsiklon-3 space rocket.

The launch took place on Jan. 30, 1988, 10:59 a.m. from 32/1.

For more information about the launch, click the button.

Launch to space Tsiklon-3 | Meteor-2 17
Tsiklon-3 | Meteor-2 17

Agency: N/A

Status: Launch Successful

Launch date: Jan. 30, 1988, 10:59 a.m. UTC

Rocket: Tsiklon-3

Launch pad: 32/1

Location: Plesetsk Cosmodrome, Russian Federation

...

Latest news about this satellite

There are no fresh news available about this satellite. Check back as we update our databases every day.


Newsletter sign-up

Weekly statistics, charts and insights to help you stay on top of the space industry.